,,,PA_Meas_PMT16A,,PR_Meas_QMR101_102,,RH_Meas_QMH101,,SR_Meas_QMS101,,TA_Meas_QMH101,,GenWind,,GenWind,
date,time,status,PA,status,PR,status,RH,status,SR,status,TA,status,DirAvg,status,SpdAvg,
2010-04-13, 00:00:04,VALID,1009.11,VALID,0,VALID,99.0052,VALID,0.105969,VALID,25.0954,VALID,93,VALID,0,
2010-04-13, 00:01:04,VALID,1009.09,VALID,0,VALID,99.0738,VALID,0,VALID,25.0759,VALID,93,VALID,0,
2010-04-13, 00:02:04,VALID,1009.12,VALID,0,VALID,99.1424,VALID,0,VALID,25.0564,VALID,93,VALID,0,
2010-04-13, 00:03:04,VALID,1009.08,VALID,0,VALID,99.1882,VALID,0,VALID,25.0369,VALID,93,VALID,0,
2010-04-13, 00:04:04,VALID,1009.07,VALID,0,VALID,99.2492,VALID,0,VALID,25.0369,VALID,93,VALID,0,
2010-04-13, 00:05:04,VALID,1009.02,VALID,0,VALID,99.2721,VALID,0,VALID,25.0174,VALID,93,VALID,0,
2010-04-13, 00:06:04,VALID,1008.99,VALID,0,VALID,99.3102,VALID,0.105969,VALID,24.9979,VALID,93,VALID,0,
2010-04-13, 00:07:04,VALID,1008.93,VALID,0,VALID,99.3559,VALID,0.105969,VALID,24.9784,VALID,93,VALID,0,
2010-04-13, 00:08:04,VALID,1008.93,VALID,0,VALID,99.3712,VALID,0.105969,VALID,24.9589,VALID,93,VALID,0,
2010-04-13, 00:09:04,VALID,1008.87,VALID,0,VALID,99.3941,VALID,0.105969,VALID,24.9784,VALID,93,VALID,0,
2010-04-13, 00:10:04,VALID,1008.88,VALID,0,VALID,99.4322,VALID,0.105969,VALID,24.9589,VALID,93,VALID,0,
2010-04-13, 00:11:04,VALID,1008.87,VALID,0,VALID,99.4398,VALID,0,VALID,24.9394,VALID,93,VALID,0,
2010-04-13, 00:12:04,VALID,1008.88,VALID,0,VALID,99.478,VALID,0.105969,VALID,24.9589,VALID,93,VALID,0,
2010-04-13, 00:13:04,VALID,1008.85,VALID,0,VALID,99.539,VALID,0,VALID,24.9394,VALID,93,VALID,0,
2010-04-13, 00:14:04,VALID,1008.86,VALID,0,VALID,99.5618,VALID,0,VALID,24.9803,VALID,93,VALID,0,
2010-04-13, 00:15:04,VALID,1008.82,VALID,0,VALID,99.5923,VALID,0,VALID,24.9608,VALID,93,VALID,0,
2010-04-13, 00:16:04,VALID,1008.79,VALID,0,VALID,99.6,VALID,0,VALID,24.9608,VALID,93,VALID,0,
2010-04-13, 00:17:04,VALID,1008.75,VALID,0,VALID,99.6152,VALID,0.105969,VALID,24.9199,VALID,93,VALID,0,
2010-04-13, 00:18:04,VALID,1008.71,VALID,0,VALID,99.6152,VALID,0,VALID,24.9199,VALID,93,VALID,0,
2010-04-13, 00:19:04,VALID,1008.66,VALID,0,VALID,99.6381,VALID,0.105969,VALID,24.9004,VALID,93,VALID,0,
2010-04-13, 00:20:04,VALID,1008.63,VALID,0,VALID,99.6228,VALID,0.105969,VALID,24.8809,VALID,93,VALID,0,
2010-04-13, 00:21:04,VALID,1008.65,VALID,0,VALID,99.6228,VALID,0,VALID,24.8615,VALID,93,VALID,0,
2010-04-13, 00:22:04,VALID,1008.64,VALID,0,VALID,99.6457,VALID,0,VALID,24.8809,VALID,93,VALID,0,
2010-04-13, 00:23:04,VALID,1008.65,VALID,0,VALID,99.661,VALID,0,VALID,24.8809,VALID,93,VALID,0.277344,
2010-04-13, 00:24:04,VALID,1008.69,VALID,0,VALID,99.6762,VALID,0,VALID,24.8828,VALID,93,VALID,0.107813,
2010-04-13, 00:25:04,VALID,1008.68,VALID,0,VALID,99.661,VALID,0,VALID,24.842,VALID,93,VALID,0,
2010-04-13, 00:26:04,VALID,1008.71,VALID,0,VALID,99.6381,VALID,0,VALID,24.8225,VALID,93,VALID,0,
2010-04-13, 00:27:04,VALID,1008.71,VALID,0,VALID,99.661,VALID,0,VALID,24.842,VALID,93,VALID,0,
2010-04-13, 00:28:04,VALID,1008.71,VALID,0,VALID,99.6762,VALID,0,VALID,24.8828,VALID,93,VALID,0,
2010-04-13, 00:29:04,VALID,1008.66,VALID,0,VALID,99.6686,VALID,0,VALID,24.8615,VALID,95,VALID,0,
2010-04-13, 00:30:04,VALID,1008.65,VALID,0,VALID,99.6762,VALID,0,VALID,24.8828,VALID,120,VALID,0,
2010-04-13, 00:31:04,VALID,1008.6,VALID,0,VALID,99.6762,VALID,0.105969,VALID,24.8828,VALID,120,VALID,0,
2010-04-13, 00:32:04,VALID,1008.58,VALID,0,VALID,99.7449,VALID,0.105969,VALID,24.8809,VALID,120,VALID,0,
2010-04-13, 00:33:04,VALID,1008.57,VALID,0,VALID,99.7144,VALID,0,VALID,24.9218,VALID,120,VALID,0,
2010-04-13, 00:34:04,VALID,1008.55,VALID,0,VALID,99.7144,VALID,0.105969,VALID,24.9218,VALID,120,VALID,0,
2010-04-13, 00:35:04,VALID,1008.53,VALID,0,VALID,99.7525,VALID,0,VALID,24.9004,VALID,120,VALID,0,
2010-04-13, 00:36:04,VALID,1008.56,VALID,0,VALID,99.7296,VALID,0.105969,VALID,24.9004,VALID,120,VALID,0,
2010-04-13, 00:37:04,VALID,1008.57,VALID,0,VALID,99.7525,VALID,0,VALID,24.9004,VALID,120,VALID,0,
2010-04-13, 00:38:04,VALID,1008.59,VALID,0,VALID,99.7601,VALID,0.105969,VALID,24.9199,VALID,120,VALID,0,
2010-04-13, 00:39:04,VALID,1008.61,VALID,0,VALID,99.7525,VALID,0,VALID,24.9199,VALID,120,VALID,0,
2010-04-13, 00:40:04,VALID,1008.61,VALID,0,VALID,99.7601,VALID,0,VALID,24.9199,VALID,120,VALID,0,
2010-04-13, 00:41:04,VALID,1008.6,VALID,0,VALID,99.783,VALID,0,VALID,24.9199,VALID,120,VALID,0,
2010-04-13, 00:42:04,VALID,1008.62,VALID,0,VALID,99.7754,VALID,0,VALID,24.9199,VALID,120,VALID,0,
2010-04-13, 00:43:04,VALID,1008.6,VALID,0,VALID,99.7525,VALID,0,VALID,24.9004,VALID,120,VALID,0,
2010-04-13, 00:44:04,VALID,1008.55,VALID,0,VALID,99.7906,VALID,0,VALID,24.9218,VALID,120,VALID,0,
2010-04-13, 00:45:04,VALID,1008.54,VALID,0,VALID,99.783,VALID,0.105969,VALID,24.9218,VALID,120,VALID,0,
2010-04-13, 00:46:04,VALID,1008.54,VALID,0,VALID,99.6,VALID,0,VALID,24.9004,VALID,120,VALID,0,
2010-04-13, 00:47:04,VALID,1008.53,VALID,0,VALID,99.6076,VALID,0,VALID,24.9004,VALID,117,VALID,0,
2010-04-13, 00:48:04,VALID,1008.51,VALID,0,VALID,99.6076,VALID,0,VALID,24.9023,VALID,112,VALID,0,
2010-04-13, 00:49:04,VALID,1008.5,VALID,0,VALID,99.6305,VALID,0.105969,VALID,24.8809,VALID,112,VALID,0,
2010-04-13, 00:50:04,VALID,1008.51,VALID,0,VALID,99.6991,VALID,0.105969,VALID,24.8615,VALID,112,VALID,0,
2010-04-13, 00:51:04,VALID,1008.52,VALID,0,VALID,99.8821,VALID,0,VALID,24.842,VALID,112,VALID,0,
2010-04-13, 00:52:04,VALID,1008.53,VALID,0,VALID,99.905,VALID,0,VALID,24.842,VALID,112,VALID,0,
2010-04-13, 00:53:04,VALID,1008.55,VALID,0,VALID,99.8897,VALID,0,VALID,24.8225,VALID,112,VALID,0,
2010-04-13, 00:54:04,VALID,1008.56,VALID,0,VALID,99.8974,VALID,0.105969,VALID,24.803,VALID,112,VALID,0,
2010-04-13, 00:55:04,VALID,1008.58,VALID,0,VALID,99.8974,VALID,0,VALID,24.7835,VALID,112,VALID,0,
2010-04-13, 00:56:04,VALID,1008.58,VALID,0,VALID,99.9355,VALID,0,VALID,24.764,VALID,112,VALID,0,
2010-04-13, 00:57:04,VALID,1008.59,VALID,0,VALID,99.9355,VALID,0,VALID,24.764,VALID,112,VALID,0,
2010-04-13, 00:58:04,VALID,1008.59,VALID,0,VALID,99.9508,VALID,0,VALID,24.7445,VALID,112,VALID,0,
2010-04-13, 00:59:04,VALID,1008.58,VALID,0,VALID,99.9584,VALID,0.105969,VALID,24.7854,VALID,112,VALID,0,
2010-04-13, 01:00:04,VALID,1008.59,VALID,0,VALID,99.9736,VALID,0,VALID,24.764,VALID,112,VALID,0,
2010-04-13, 01:01:04,VALID,1008.61,VALID,0,VALID,99.9889,VALID,0,VALID,24.764,VALID,112,VALID,0,
2010-04-13, 01:02:04,VALID,1008.61,VALID,0,VALID,100.012,VALID,0.105969,VALID,24.7445,VALID,112,VALID,0,
2010-04-13, 01:03:04,VALID,1008.63,VALID,0,VALID,100.012,VALID,0.105969,VALID,24.7445,VALID,112,VALID,0,
2010-04-13, 01:04:04,VALID,1008.64,VALID,0,VALID,99.9889,VALID,0,VALID,24.7445,VALID,112,VALID,0,
2010-04-13, 01:05:04,VALID,1008.63,VALID,0,VALID,99.9965,VALID,0,VALID,24.7445,VALID,112,VALID,0,
2010-04-13, 01:06:04,VALID,1008.63,VALID,0,VALID,99.9965,VALID,0.105969,VALID,24.764,VALID,112,VALID,0,
2010-04-13, 01:07:04,VALID,1008.62,VALID,0,VALID,100.019,VALID,0,VALID,24.7854,VALID,112,VALID,0,
2010-04-13, 01:08:04,VALID,1008.62,VALID,0,VALID,100.035,VALID,0,VALID,24.764,VALID,112,VALID,0,
2010-04-13, 01:09:04,VALID,1008.59,VALID,0,VALID,100.035,VALID,0,VALID,24.7659,VALID,112,VALID,0,
2010-04-13, 01:10:04,VALID,1008.57,VALID,0,VALID,100.065,VALID,0,VALID,24.7445,VALID,112,VALID,0,
2010-04-13, 01:11:04,VALID,1008.55,VALID,0,VALID,100.065,VALID,0,VALID,24.7464,VALID,112,VALID,0,
2010-04-13, 01:12:04,VALID,1008.52,VALID,0,VALID,100.035,VALID,0,VALID,24.7269,VALID,112,VALID,0,
2010-04-13, 01:13:04,VALID,1008.53,VALID,0,VALID,100.05,VALID,0.105969,VALID,24.7464,VALID,112,VALID,0,
2010-04-13, 01:14:04,VALID,1008.52,VALID,0,VALID,100.035,VALID,0,VALID,24.7464,VALID,112,VALID,0,
2010-04-13, 01:15:04,VALID,1008.52,VALID,0,VALID,100.019,VALID,0,VALID,24.7445,VALID,112,VALID,0,
2010-04-13, 01:16:04,VALID,1008.51,VALID,0,VALID,100.027,VALID,0,VALID,24.7659,VALID,112,VALID,0,
2010-04-13, 01:17:04,VALID,1008.51,VALID,0,VALID,100.035,VALID,0,VALID,24.7854,VALID,112,VALID,0,
2010-04-13, 01:18:04,VALID,1008.49,VALID,0,VALID,100.019,VALID,0,VALID,24.7854,VALID,112,VALID,0,
2010-04-13, 01:19:04,VALID,1008.51,VALID,0,VALID,100.035,VALID,0,VALID,24.764,VALID,112,VALID,0,
2010-04-13, 01:20:04,VALID,1008.52,VALID,0,VALID,100.05,VALID,0,VALID,24.8049,VALID,112,VALID,0,
2010-04-13, 01:21:04,VALID,1008.5,VALID,0,VALID,100.058,VALID,0,VALID,24.7835,VALID,112,VALID,0,
2010-04-13, 01:22:04,VALID,1008.46,VALID,0,VALID,100.058,VALID,0,VALID,24.764,VALID,112,VALID,0,
2010-04-13, 01:23:04,VALID,1008.47,VALID,0,VALID,100.058,VALID,0.105969,VALID,24.764,VALID,112,VALID,0,
2010-04-13, 01:24:04,VALID,1008.43,VALID,0,VALID,100.065,VALID,0,VALID,24.7854,VALID,112,VALID,0,
2010-04-13, 01:25:04,VALID,1008.44,VALID,0,VALID,100.073,VALID,0,VALID,24.7445,VALID,112,VALID,0,
2010-04-13, 01:26:04,VALID,1008.39,VALID,0,VALID,100.058,VALID,0,VALID,24.725,VALID,112,VALID,0,
2010-04-13, 01:27:04,VALID,1008.39,VALID,0,VALID,100.042,VALID,0,VALID,24.725,VALID,112,VALID,0,
2010-04-13, 01:28:04,VALID,1008.4,VALID,0,VALID,100.027,VALID,0,VALID,24.7659,VALID,112,VALID,0,
2010-04-13, 01:29:04,VALID,1008.39,VALID,0,VALID,100.05,VALID,0.105969,VALID,24.7464,VALID,112,VALID,0,
2010-04-13, 01:30:04,VALID,1008.39,VALID,0,VALID,100.035,VALID,0,VALID,24.7464,VALID,112,VALID,0,
2010-04-13, 01:31:04,VALID,1008.37,VALID,0,VALID,100.05,VALID,0,VALID,24.725,VALID,112,VALID,0,
2010-04-13, 01:32:04,VALID,1008.36,VALID,0,VALID,100.073,VALID,0.105969,VALID,24.7055,VALID,112,VALID,0,
2010-04-13, 01:33:04,VALID,1008.34,VALID,0,VALID,100.065,VALID,0,VALID,24.686,VALID,112,VALID,0,
2010-04-13, 01:34:04,VALID,1008.36,VALID,0,VALID,100.058,VALID,0,VALID,24.686,VALID,112,VALID,0,
2010-04-13, 01:35:04,VALID,1008.32,VALID,0,VALID,100.088,VALID,0.105969,VALID,24.6666,VALID,112,VALID,0,
2010-04-13, 01:36:04,VALID,1008.3,VALID,0,VALID,100.073,VALID,0,VALID,24.6489,VALID,112,VALID,0,
2010-04-13, 01:37:04,VALID,1008.29,VALID,0,VALID,100.065,VALID,0,VALID,24.6081,VALID,112,VALID,0,
2010-04-13, 01:38:04,VALID,1008.31,VALID,0,VALID,100.042,VALID,0.105969,VALID,24.5886,VALID,112,VALID,0,
2010-04-13, 01:39:04,VALID,1008.3,VALID,0,VALID,100.035,VALID,0,VALID,24.6294,VALID,112,VALID,0,
2010-04-13, 01:40:04,VALID,1008.29,VALID,0,VALID,100.058,VALID,0.105969,VALID,24.5886,VALID,112,VALID,0,
2010-04-13, 01:41:04,VALID,1008.3,VALID,0,VALID,100.05,VALID,0,VALID,24.5905,VALID,112,VALID,0,
2010-04-13, 01:42:04,VALID,1008.31,VALID,0,VALID,100.05,VALID,0,VALID,24.5691,VALID,112,VALID,0,
2010-04-13, 01:43:04,VALID,1008.31,VALID,0,VALID,100.042,VALID,0.105969,VALID,24.5691,VALID,112,VALID,0,
2010-04-13, 01:44:04,VALID,1008.28,VALID,0,VALID,100.042,VALID,0,VALID,24.5691,VALID,112,VALID,0,
2010-04-13, 01:45:04,VALID,1008.28,VALID,0,VALID,100.042,VALID,0.105969,VALID,24.5691,VALID,112,VALID,0,
2010-04-13, 01:46:04,VALID,1008.3,VALID,0,VALID,100.058,VALID,0.105969,VALID,24.5496,VALID,112,VALID,0,
2010-04-13, 01:47:04,VALID,1008.31,VALID,0,VALID,100.035,VALID,0.105969,VALID,24.5496,VALID,112,VALID,0,
2010-04-13, 01:48:04,VALID,1008.33,VALID,0,VALID,100.027,VALID,0.105969,VALID,24.5496,VALID,112,VALID,0,
2010-04-13, 01:49:04,VALID,1008.3,VALID,0,VALID,99.9889,VALID,0.105969,VALID,24.5496,VALID,112,VALID,0,
2010-04-13, 01:50:04,VALID,1008.3,VALID,0,VALID,100.004,VALID,0,VALID,24.5691,VALID,112,VALID,0,
2010-04-13, 01:51:04,VALID,1008.26,VALID,0,VALID,99.9965,VALID,0.105969,VALID,24.6099,VALID,112,VALID,0,
2010-04-13, 01:52:04,VALID,1008.26,VALID,0,VALID,99.9965,VALID,0.105969,VALID,24.6081,VALID,112,VALID,0,
2010-04-13, 01:53:04,VALID,1008.25,VALID,0,VALID,99.9965,VALID,0.105969,VALID,24.6489,VALID,112,VALID,0,
2010-04-13, 01:54:04,VALID,1008.21,VALID,0,VALID,99.9889,VALID,0.105969,VALID,24.6294,VALID,112,VALID,0,
2010-04-13, 01:55:04,VALID,1008.19,VALID,0,VALID,99.9736,VALID,0.105969,VALID,24.6276,VALID,112,VALID,0,
2010-04-13, 01:56:04,VALID,1008.2,VALID,0,VALID,99.9431,VALID,0.105969,VALID,24.6471,VALID,112,VALID,0,
2010-04-13, 01:57:04,VALID,1008.19,VALID,0,VALID,99.9355,VALID,0,VALID,24.6276,VALID,112,VALID,0,
2010-04-13, 01:58:04,VALID,1008.15,VALID,0,VALID,99.9279,VALID,0.105969,VALID,24.6471,VALID,112,VALID,0,
2010-04-13, 01:59:04,VALID,1008.2,VALID,0,VALID,99.9202,VALID,0.105969,VALID,24.6684,VALID,112,VALID,0,
2010-04-13, 02:00:04,VALID,1008.19,VALID,0,VALID,99.9202,VALID,0,VALID,24.6471,VALID,112,VALID,0,
2010-04-13, 02:01:04,VALID,1008.17,VALID,0,VALID,99.8897,VALID,0.105969,VALID,24.6276,VALID,112,VALID,0,
2010-04-13, 02:02:04,VALID,1008.19,VALID,0,VALID,99.8364,VALID,0.105969,VALID,24.6276,VALID,112,VALID,0,
2010-04-13, 02:03:04,VALID,1008.19,VALID,0,VALID,99.8211,VALID,0.105969,VALID,24.6294,VALID,112,VALID,0,
2010-04-13, 02:04:04,VALID,1008.2,VALID,0,VALID,99.8364,VALID,0.105969,VALID,24.6099,VALID,112,VALID,0,
2010-04-13, 02:05:04,VALID,1008.21,VALID,0,VALID,99.8059,VALID,0.105969,VALID,24.5886,VALID,112,VALID,0,
2010-04-13, 02:06:04,VALID,1008.22,VALID,0,VALID,99.7906,VALID,0,VALID,24.6099,VALID,112,VALID,0,
2010-04-13, 02:07:04,VALID,1008.22,VALID,0,VALID,99.7754,VALID,0,VALID,24.6081,VALID,112,VALID,0,
2010-04-13, 02:08:04,VALID,1008.22,VALID,0,VALID,99.7906,VALID,0,VALID,24.6099,VALID,112,VALID,0,
2010-04-13, 02:09:04,VALID,1008.23,VALID,0,VALID,99.7906,VALID,0,VALID,24.5691,VALID,112,VALID,0,
2010-04-13, 02:10:04,VALID,1008.22,VALID,0,VALID,99.8135,VALID,0.105969,VALID,24.5691,VALID,112,VALID,0,
2010-04-13, 02:11:04,VALID,1008.22,VALID,0,VALID,99.8211,VALID,0,VALID,24.571,VALID,112,VALID,0,
2010-04-13, 02:12:04,VALID,1008.2,VALID,0,VALID,99.8516,VALID,0,VALID,24.5301,VALID,112,VALID,0,
2010-04-13, 02:13:04,VALID,1008.18,VALID,0,VALID,99.8669,VALID,0.105969,VALID,24.5106,VALID,112,VALID,0,
2010-04-13, 02:14:04,VALID,1008.16,VALID,0,VALID,99.9279,VALID,0.105969,VALID,24.532,VALID,112,VALID,0,
2010-04-13, 02:15:04,VALID,1008.14,VALID,0,VALID,100.058,VALID,0.105969,VALID,24.5496,VALID,112,VALID,0,
2010-04-13, 02:16:04,VALID,1008.14,VALID,0,VALID,100.073,VALID,0.105969,VALID,24.571,VALID,112,VALID,0,
2010-04-13, 02:17:04,VALID,1008.13,VALID,0,VALID,100.058,VALID,0.105969,VALID,24.5691,VALID,112,VALID,0,
2010-04-13, 02:18:04,VALID,1008.11,VALID,0,VALID,100.05,VALID,0.105969,VALID,24.5886,VALID,112,VALID,0,
2010-04-13, 02:19:04,VALID,1008.12,VALID,0,VALID,100.065,VALID,0.105969,VALID,24.5691,VALID,112,VALID,0,
2010-04-13, 02:20:04,VALID,1008.12,VALID,0,VALID,100.065,VALID,0,VALID,24.571,VALID,112,VALID,0,
2010-04-13, 02:21:04,VALID,1008.11,VALID,0,VALID,100.088,VALID,0,VALID,24.5301,VALID,112,VALID,0,
2010-04-13, 02:22:04,VALID,1008.08,VALID,0,VALID,100.103,VALID,0.105969,VALID,24.5515,VALID,112,VALID,0,
2010-04-13, 02:23:04,VALID,1008.08,VALID,0,VALID,100.126,VALID,0.105969,VALID,24.5106,VALID,112,VALID,0,
2010-04-13, 02:24:04,VALID,1008.06,VALID,0,VALID,100.103,VALID,0.105969,VALID,24.4911,VALID,112,VALID,0,
2010-04-13, 02:25:04,VALID,1008.02,VALID,0,VALID,100.103,VALID,0,VALID,24.5125,VALID,112,VALID,0,
2010-04-13, 02:26:04,VALID,1007.97,VALID,0,VALID,100.103,VALID,0.105969,VALID,24.4911,VALID,112,VALID,0,
2010-04-13, 02:27:04,VALID,1007.96,VALID,0,VALID,100.088,VALID,0,VALID,24.5125,VALID,112,VALID,0,
2010-04-13, 02:28:04,VALID,1007.9,VALID,0,VALID,100.065,VALID,0.105969,VALID,24.4717,VALID,112,VALID,0,
2010-04-13, 02:29:04,VALID,1007.89,VALID,0,VALID,100.088,VALID,0.105969,VALID,24.4717,VALID,112,VALID,0,
2010-04-13, 02:30:04,VALID,1007.85,VALID,0,VALID,100.073,VALID,0.105969,VALID,24.4717,VALID,112,VALID,0,
2010-04-13, 02:31:04,VALID,1007.86,VALID,0,VALID,100.019,VALID,0.105969,VALID,24.4911,VALID,112,VALID,0,
2010-04-13, 02:32:04,VALID,1007.85,VALID,0,VALID,100.004,VALID,0,VALID,24.5515,VALID,112,VALID,0,
2010-04-13, 02:33:04,VALID,1007.85,VALID,0,VALID,99.9965,VALID,0.105969,VALID,24.5496,VALID,112,VALID,0,
2010-04-13, 02:34:04,VALID,1007.83,VALID,0,VALID,100.012,VALID,0,VALID,24.571,VALID,112,VALID,0,
2010-04-13, 02:35:04,VALID,1007.85,VALID,0,VALID,100.027,VALID,0,VALID,24.5496,VALID,112,VALID,0,
2010-04-13, 02:36:04,VALID,1007.86,VALID,0,VALID,100.019,VALID,0.105969,VALID,24.5301,VALID,112,VALID,0,
2010-04-13, 02:37:04,VALID,1007.9,VALID,0,VALID,100.05,VALID,0.105969,VALID,24.5301,VALID,112,VALID,0,
2010-04-13, 02:38:04,VALID,1007.92,VALID,0,VALID,100.058,VALID,0.105969,VALID,24.5106,VALID,112,VALID,0,
2010-04-13, 02:39:04,VALID,1007.91,VALID,0,VALID,100.027,VALID,0.105969,VALID,24.5106,VALID,112,VALID,0,
2010-04-13, 02:40:04,VALID,1007.92,VALID,0,VALID,100.05,VALID,0,VALID,24.4911,VALID,112,VALID,0,
2010-04-13, 02:41:04,VALID,1007.93,VALID,0,VALID,100.05,VALID,0.105969,VALID,24.4911,VALID,112,VALID,0,
2010-04-13, 02:42:04,VALID,1007.9,VALID,0,VALID,100.073,VALID,0.105969,VALID,24.493,VALID,112,VALID,0,
2010-04-13, 02:43:04,VALID,1007.88,VALID,0,VALID,100.111,VALID,0.105969,VALID,24.4132,VALID,112,VALID,0,
2010-04-13, 02:44:04,VALID,1007.86,VALID,0,VALID,100.126,VALID,0.105969,VALID,24.3937,VALID,112,VALID,0,
2010-04-13, 02:45:04,VALID,1007.89,VALID,0,VALID,100.111,VALID,0.105969,VALID,24.3937,VALID,112,VALID,0,
2010-04-13, 02:46:04,VALID,1007.84,VALID,0,VALID,100.103,VALID,0.105969,VALID,24.4345,VALID,112,VALID,0,
2010-04-13, 02:47:04,VALID,1007.88,VALID,0,VALID,100.073,VALID,0.105969,VALID,24.4345,VALID,112,VALID,0,
2010-04-13, 02:48:04,VALID,1007.89,VALID,0,VALID,100.073,VALID,0.105969,VALID,24.4327,VALID,112,VALID,0,
2010-04-13, 02:49:04,VALID,1007.91,VALID,0,VALID,100.05,VALID,0.105969,VALID,24.4132,VALID,112,VALID,0,
2010-04-13, 02:50:04,VALID,1007.86,VALID,0,VALID,100.073,VALID,0.105969,VALID,24.4345,VALID,112,VALID,0,
2010-04-13, 02:51:04,VALID,1007.86,VALID,0,VALID,100.073,VALID,0.105969,VALID,24.4132,VALID,112,VALID,0,
2010-04-13, 02:52:04,VALID,1007.83,VALID,0,VALID,100.08,VALID,0.105969,VALID,24.415,VALID,112,VALID,0,
2010-04-13, 02:53:04,VALID,1007.85,VALID,0,VALID,100.08,VALID,0.105969,VALID,24.415,VALID,112,VALID,0,
2010-04-13, 02:54:04,VALID,1007.83,VALID,0,VALID,100.073,VALID,0.105969,VALID,24.3956,VALID,112,VALID,0,
2010-04-13, 02:55:04,VALID,1007.84,VALID,0,VALID,100.103,VALID,0,VALID,24.3761,VALID,112,VALID,0,
2010-04-13, 02:56:04,VALID,1007.85,VALID,0,VALID,100.103,VALID,0.105969,VALID,24.3352,VALID,112,VALID,0,
2010-04-13, 02:57:04,VALID,1007.85,VALID,0,VALID,100.103,VALID,0.105969,VALID,24.3352,VALID,112,VALID,0,
2010-04-13, 02:58:04,VALID,1007.84,VALID,0,VALID,100.088,VALID,0.105969,VALID,24.3566,VALID,112,VALID,0,
2010-04-13, 02:59:04,VALID,1007.84,VALID,0,VALID,100.088,VALID,0,VALID,24.3371,VALID,112,VALID,0,
2010-04-13, 03:00:04,VALID,1007.84,VALID,0,VALID,100.096,VALID,0,VALID,24.3158,VALID,112,VALID,0,
2010-04-13, 03:01:04,VALID,1007.84,VALID,0,VALID,100.088,VALID,0.105969,VALID,24.3547,VALID,112,VALID,0,
2010-04-13, 03:02:04,VALID,1007.85,VALID,0,VALID,100.065,VALID,0,VALID,24.3566,VALID,112,VALID,0,
2010-04-13, 03:03:04,VALID,1007.83,VALID,0,VALID,100.065,VALID,0.105969,VALID,24.3352,VALID,112,VALID,0,
2010-04-13, 03:04:04,VALID,1007.85,VALID,0,VALID,100.096,VALID,0,VALID,24.3371,VALID,112,VALID,0,
2010-04-13, 03:05:04,VALID,1007.85,VALID,0,VALID,100.05,VALID,0.105969,VALID,24.3352,VALID,112,VALID,0,
2010-04-13, 03:06:04,VALID,1007.87,VALID,0,VALID,100.05,VALID,0,VALID,24.3371,VALID,112,VALID,0,
2010-04-13, 03:07:04,VALID,1007.87,VALID,0,VALID,100.073,VALID,0,VALID,24.3176,VALID,112,VALID,0,
2010-04-13, 03:08:04,VALID,1007.89,VALID,0,VALID,100.065,VALID,0,VALID,24.3371,VALID,112,VALID,0,
2010-04-13, 03:09:04,VALID,1007.88,VALID,0,VALID,100.042,VALID,0,VALID,24.3566,VALID,112,VALID,0,
2010-04-13, 03:10:04,VALID,1007.88,VALID,0,VALID,100.058,VALID,0.105969,VALID,24.3158,VALID,112,VALID,0,
2010-04-13, 03:11:04,VALID,1007.89,VALID,0,VALID,100.088,VALID,0,VALID,24.2981,VALID,112,VALID,0,
2010-04-13, 03:12:04,VALID,1007.89,VALID,0,VALID,100.103,VALID,0.105969,VALID,24.2768,VALID,112,VALID,0,
2010-04-13, 03:13:04,VALID,1007.88,VALID,0,VALID,100.088,VALID,0.105969,VALID,24.2573,VALID,112,VALID,0,
2010-04-13, 03:14:04,VALID,1007.88,VALID,0,VALID,100.08,VALID,0.105969,VALID,24.2768,VALID,112,VALID,0,
2010-04-13, 03:15:04,VALID,1007.91,VALID,0,VALID,100.042,VALID,0.105969,VALID,24.3176,VALID,112,VALID,0,
2010-04-13, 03:16:04,VALID,1007.9,VALID,0,VALID,100.05,VALID,0.105969,VALID,24.2981,VALID,112,VALID,0,
2010-04-13, 03:17:04,VALID,1007.9,VALID,0,VALID,100.073,VALID,0,VALID,24.2786,VALID,112,VALID,0,
2010-04-13, 03:18:04,VALID,1007.87,VALID,0,VALID,100.08,VALID,0.105969,VALID,24.2786,VALID,112,VALID,0,
2010-04-13, 03:19:04,VALID,1007.89,VALID,0,VALID,100.073,VALID,0.105969,VALID,24.2573,VALID,112,VALID,0,
2010-04-13, 03:20:04,VALID,1007.89,VALID,0,VALID,100.035,VALID,0.105969,VALID,24.2378,VALID,112,VALID,0,
2010-04-13, 03:21:04,VALID,1007.88,VALID,0,VALID,100.058,VALID,0.105969,VALID,24.2573,VALID,112,VALID,0,
2010-04-13, 03:22:04,VALID,1007.86,VALID,0,VALID,100.065,VALID,0.105969,VALID,24.2786,VALID,112,VALID,0,
2010-04-13, 03:23:04,VALID,1007.85,VALID,0,VALID,100.05,VALID,0.105969,VALID,24.2786,VALID,112,VALID,0,
2010-04-13, 03:24:04,VALID,1007.85,VALID,0,VALID,100.019,VALID,0,VALID,24.2573,VALID,112,VALID,0,
2010-04-13, 03:25:04,VALID,1007.84,VALID,0,VALID,100.012,VALID,0,VALID,24.2573,VALID,112,VALID,0,
2010-04-13, 03:26:04,VALID,1007.82,VALID,0,VALID,100.027,VALID,0.105969,VALID,24.2573,VALID,112,VALID,0,
2010-04-13, 03:27:04,VALID,1007.83,VALID,0,VALID,100.035,VALID,0.105969,VALID,24.2573,VALID,112,VALID,0,
2010-04-13, 03:28:04,VALID,1007.81,VALID,0,VALID,100.035,VALID,0,VALID,24.2591,VALID,112,VALID,0,
2010-04-13, 03:29:04,VALID,1007.84,VALID,0,VALID,100.004,VALID,0.105969,VALID,24.2768,VALID,112,VALID,0,
2010-04-13, 03:30:04,VALID,1007.81,VALID,0,VALID,100.004,VALID,0.105969,VALID,24.2768,VALID,112,VALID,0,
2010-04-13, 03:31:04,VALID,1007.83,VALID,0,VALID,99.9965,VALID,0,VALID,24.2786,VALID,112,VALID,0,
2010-04-13, 03:32:04,VALID,1007.82,VALID,0,VALID,99.9889,VALID,0,VALID,24.2591,VALID,112,VALID,0,
2010-04-13, 03:33:04,VALID,1007.83,VALID,0,VALID,100.004,VALID,0,VALID,24.3,VALID,112,VALID,0,
2010-04-13, 03:34:04,VALID,1007.78,VALID,0,VALID,99.9889,VALID,0,VALID,24.2786,VALID,112,VALID,0,
2010-04-13, 03:35:04,VALID,1007.81,VALID,0,VALID,100.004,VALID,0,VALID,24.2591,VALID,112,VALID,0,
2010-04-13, 03:36:04,VALID,1007.83,VALID,0,VALID,100.004,VALID,0,VALID,24.2591,VALID,112,VALID,0,
2010-04-13, 03:37:04,VALID,1007.83,VALID,0,VALID,100.019,VALID,0,VALID,24.261,VALID,112,VALID,0,
2010-04-13, 03:38:04,VALID,1007.8,VALID,0,VALID,100.019,VALID,0,VALID,24.2202,VALID,112,VALID,0,
2010-04-13, 03:39:04,VALID,1007.81,VALID,0,VALID,100.035,VALID,0,VALID,24.2415,VALID,112,VALID,0,
2010-04-13, 03:40:04,VALID,1007.83,VALID,0,VALID,100.019,VALID,0,VALID,24.2415,VALID,112,VALID,0,
2010-04-13, 03:41:04,VALID,1007.82,VALID,0,VALID,100.004,VALID,0,VALID,24.2202,VALID,112,VALID,0,
2010-04-13, 03:42:04,VALID,1007.82,VALID,0,VALID,100.012,VALID,0,VALID,24.261,VALID,112,VALID,0,
2010-04-13, 03:43:04,VALID,1007.82,VALID,0,VALID,100.019,VALID,0,VALID,24.2396,VALID,112,VALID,0,
2010-04-13, 03:44:04,VALID,1007.83,VALID,0,VALID,99.9965,VALID,0,VALID,24.2396,VALID,112,VALID,0,
2010-04-13, 03:45:04,VALID,1007.81,VALID,0,VALID,100.019,VALID,0,VALID,24.261,VALID,112,VALID,0,
2010-04-13, 03:46:04,VALID,1007.8,VALID,0,VALID,99.9965,VALID,0.105969,VALID,24.2378,VALID,111,VALID,0,
2010-04-13, 03:47:04,VALID,1007.79,VALID,0,VALID,99.9889,VALID,0,VALID,24.2573,VALID,112,VALID,0,
2010-04-13, 03:48:04,VALID,1007.79,VALID,0,VALID,99.9889,VALID,0,VALID,24.2378,VALID,112,VALID,0,
2010-04-13, 03:49:04,VALID,1007.77,VALID,0,VALID,99.9965,VALID,0.105969,VALID,24.2591,VALID,112,VALID,0,
2010-04-13, 03:50:04,VALID,1007.76,VALID,0,VALID,99.9965,VALID,0,VALID,24.2396,VALID,112,VALID,0,
2010-04-13, 03:51:04,VALID,1007.78,VALID,0,VALID,99.9813,VALID,0,VALID,24.2202,VALID,112,VALID,0,
2010-04-13, 03:52:04,VALID,1007.78,VALID,0,VALID,99.9889,VALID,0,VALID,24.1988,VALID,112,VALID,0,